Regional Weather Roundup
Issued by NWS

Home | Current Version | Previous Version | Graphics & Text | Print | Product List | Glossary On
Versions: 1 2 3 4 5 6 7 8 9 10 11 12 13 14 15 16 17 18 19 20 21 22 23 24 25 26 27 28 29 30 31 32 33 34 35 36 37 38 39 40 41 42 43 44 45 46 47 48 49 50
634
ASUS43 KLSX 231807
RWRMO

WEATHER SUMMARY FOR MISSOURI
NATIONAL WEATHER SERVICE SPRINGFIELD MO
1200 PM CST MON JAN 23 2017

NOTE: "FAIR" INDICATES FEW OR NO CLOUDS BELOW 12,000 FEET WITH NO
       SIGNIFICANT WEATHER AND/OR OBSTRUCTIONS TO VISIBILITY.
       CURRENT SKY AND/OR WEATHER CONDITIONS ARE NOT AVAILABLE FOR
       CHILLICOTHE AND FARMINGTON.

MOZ001>031-035>038-043-044-053-054-231900-
...NORTHERN AND WESTERN MISSOURI...

CITY           SKY/WX    TMP DP  RH WIND       PRES   REMARKS
KANSAS CTY INT CLOUDY    34  30  85 NW5       29.90F FOG     WCI  30
6HR MIN TEMP:  31; 6HR MAX TEMP:  34;

KANSAS C DTWN  CLOUDY    36  32  85 VRB3      29.91F
6HR MIN TEMP:  32; 6HR MAX TEMP:  36;

LEE`S SUMMIT   CLOUDY    35  32  88 NW6       29.91F FOG
6HR MIN TEMP:  30; 6HR MAX TEMP:  35;

ST JOSEPH      CLOUDY    34  31  88 NW6       29.92F FOG     WCI  29
6HR MIN TEMP:  31; 6HR MAX TEMP:  34;

CHILLICOTHE      N/A     36  30  79 N5        29.91F
6HR MIN TEMP:  32; 6HR MAX TEMP:  36;

KIRKSVILLE     CLOUDY    33  31  92 N7        29.87F FOG     WCI  27
6HR MIN TEMP:  32; 6HR MAX TEMP:  37;


$$
MOZ066>068-077>081-088>096-101>105-231900-
...SOUTHWEST MISSOURI...

CITY           SKY/WX    TMP DP  RH WIND       PRES   REMARKS
SPRINGFIELD    CLOUDY    43  36  76 N5        29.88F
6HR MIN TEMP:  37; 6HR MAX TEMP:  43;

JOPLIN         SUNNY     46  37  71 SW8       29.91F
6HR MIN TEMP:  35; 6HR MAX TEMP:  46;

BRANSON        PTSUNNY   41  36  81 W6        29.89F

$$
MOZ032>034-039>042-045>050-055>058-069>072-231900-
...CENTRAL MISSOURI...

CITY           SKY/WX    TMP DP  RH WIND       PRES   REMARKS
COLUMBIA       CLOUDY    41  33  73 N9        29.86F
6HR MIN TEMP:  37; 6HR MAX TEMP:  41;

JEFFERSON CITY CLOUDY    42  35  76 W9        29.88F
6HR MIN TEMP:  38; 6HR MAX TEMP:  42;

ROLLA          CLOUDY    41  34  76 N13       29.84F
6HR MIN TEMP:  38; 6HR MAX TEMP:  41;

SEDALIA        CLOUDY    37  33  85 NW9       29.90F
6HR MIN TEMP:  36; 6HR MAX TEMP:  37;

WHITEMAN AFB   CLOUDY    35  35  99 N3        29.89F
WARRENSBURG    CLOUDY    36  32  87 W6        29.91S
OSAGE BEACH    CLOUDY    41  34  76 W8        29.89F

$$
MOZ051-052-059>065-231900-
...EAST CENTRAL MISSOURI...

CITY           SKY/WX    TMP DP  RH WIND       PRES   REMARKS
ST LOUIS INTL  CLOUDY    44  35  70 N10       29.84F
6HR MIN TEMP:  40; 6HR MAX TEMP:  44;

SPIRIT OF STL  CLOUDY    43  35  73 NW15      29.85F
6HR MIN TEMP:  41; 6HR MAX TEMP:  44;

ST CHARLES     CLOUDY    43  35  73 N10       29.84F
6HR MIN TEMP:  40; 6HR MAX TEMP:  43;


$$
MOZ072>076-082>087-097>100-106>115-231900-
...SOUTH CENTRAL AND SOUTHEAST MISSOURI...

CITY           SKY/WX    TMP DP  RH WIND       PRES   REMARKS
CAPE GIRARDEAU CLOUDY    44  35  70 N14G25    29.79F
6HR MIN TEMP:  40; 6HR MAX TEMP:  44;

FARMINGTON     CLOUDY    43  34  70 NW13G22   29.82F
6HR MIN TEMP:  39; 6HR MAX TEMP:  43;

POPLAR BLUFF   PTSUNNY   50  37  61 NW16      29.80F
6HR MIN TEMP:  41; 6HR MAX TEMP:  50;

WEST PLAINS    CLOUDY    44  36  73 NW14      29.86F
6HR MIN TEMP:  40; 6HR MAX TEMP:  45;


$$



USA.gov is the U.S. government's official web portal to all federal, state and local government web resources and services.